Boscobel, WI

2:25 AM CDT on April 30, 2017 (GMT -0500)
Boscobel

Weather History for KOVS - December, 2012

Change the Weather History Date:

Saturday, December 29, 2012

  Actual Average (KPDC) Record (KPDC)
Temperature  
Mean Temperature 16 °F -  
Max Temperature 24 °F 29 °F 59 °F (1984)
Min Temperature 8 °F 11 °F -11 °F (1963)
Degree Days  
Heating Degree Days 49    
Moisture  
Dew Point 15 °F    
Average Humidity 81    
Maximum Humidity 96    
Minimum Humidity 71    
Precipitation  
Precipitation 0.00 in - - ()
Sea Level Pressure  
Sea Level Pressure 30.09 in    
Wind  
Wind Speed 3 mph (West)    
Max Wind Speed 10 mph    
Max Gust Speed 20 mph    
Visibility 9 miles    
Events      
Averages and records for this station are not official NWS values.
T = Trace of Precipitation, MM = Missing Value Source: NWS Daily Summary

Daily Weather History Graph

Daily Weather History Graph

Search for Another Location

Airport or City:

Trip Planner

Search our weather history database for the weather conditions in past years. The results will help you decide how hot, cold, wet, or windy it might be!

Date:

Astronomy

Dec. 29, 2012 Rise Set
Actual Time 7:34 AM CST 4:35 PM CST
Civil Twilight 7:01 AM CST 5:08 PM CST
Nautical Twilight 6:25 AM CST 5:44 PM CST
Astronomical Twilight 5:51 AM CST 6:18 PM CST
Moon 6:11 PM CST (12/29) 8:05 AM CST (12/29)
Length of Visible Light 10h 06m
Length of Day
9h 01m
Full, 98% of the Moon is Illuminated
Dec 29
Full
Jan 4
Last Quarter
Jan 11
New
Jan 18
First Quarter
Jan 26
Full

Hourly Weather History & Observations

Time (CST) Temp. Windchill Dew Point Humidity Pressure Visibility Wind Dir Wind Speed Gust Speed Precip Events Conditions
12:53 AM 21.0 °F - 19.9 °F 96% 29.98 in 4.0 mi Calm Calm - N/A   Overcast
1:14 AM 21.2 °F - 19.4 °F 93% 29.94 in 5.0 mi Calm Calm - N/A   Overcast
1:53 AM 23.0 °F - 19.9 °F 88% 29.99 in 7.0 mi Calm Calm - N/A   Overcast
2:53 AM 24.1 °F - 19.9 °F 84% 29.99 in 10.0 mi Calm Calm - N/A   Overcast
3:14 AM 24.8 °F - 19.4 °F 80% 29.96 in 10.0 mi Calm Calm - N/A   Overcast
3:53 AM 24.1 °F 18.2 °F 19.9 °F 84% 29.99 in 9.0 mi WNW 4.6 mph - N/A   Overcast
4:07 AM 24.8 °F - 19.4 °F 80% 29.96 in 9.0 mi Calm Calm - N/A   Overcast
4:43 AM 24.8 °F 20.5 °F 19.4 °F 80% 29.97 in 10.0 mi Variable 3.5 mph - N/A   Overcast
4:53 AM 24.1 °F 17.0 °F 19.9 °F 84% 30.00 in 10.0 mi WNW 5.8 mph - N/A   Overcast
5:53 AM 24.1 °F 19.7 °F 19.0 °F 81% 30.01 in 10.0 mi West 3.5 mph - N/A   Overcast
6:18 AM 24.8 °F 20.5 °F 19.4 °F 80% 29.99 in 10.0 mi WNW 3.5 mph - N/A   Overcast
6:42 AM 24.8 °F 17.9 °F 19.4 °F 80% 29.99 in 10.0 mi WNW 5.8 mph - N/A   Overcast
6:53 AM 24.1 °F 18.2 °F 19.0 °F 81% 30.03 in 9.0 mi WNW 4.6 mph - N/A   Overcast
7:53 AM 24.1 °F 16.0 °F 18.0 °F 77% 30.05 in 8.0 mi WNW 6.9 mph - N/A   Overcast
8:53 AM 23.0 °F 14.7 °F 17.1 °F 78% 30.07 in 10.0 mi WNW 6.9 mph - N/A   Overcast
9:06 AM 23.0 °F 13.1 °F 17.6 °F 80% 30.04 in 10.0 mi WNW 9.2 mph - N/A   Overcast
9:53 AM 21.9 °F 11.0 °F 16.0 °F 78% 30.10 in 10.0 mi NW 10.4 mph 19.6 mph N/A   Overcast
10:53 AM 21.9 °F - 16.0 °F 78% 30.11 in 10.0 mi Calm Calm - N/A   Overcast
11:53 AM 21.9 °F 15.7 °F 15.1 °F 75% 30.11 in 10.0 mi WNW 4.6 mph - N/A   Overcast
12:53 PM 23.0 °F 14.7 °F 15.1 °F 72% 30.10 in 10.0 mi WNW 6.9 mph - N/A   Overcast
1:53 PM 23.0 °F 13.9 °F 15.1 °F 72% 30.11 in 10.0 mi WNW 8.1 mph - N/A   Overcast
2:53 PM 21.9 °F 11.7 °F 15.1 °F 75% 30.13 in 10.0 mi NW 9.2 mph - N/A   Overcast
3:53 PM 21.0 °F 13.4 °F 12.9 °F 71% 30.15 in 10.0 mi WNW 5.8 mph - N/A   Mostly Cloudy
5:53 PM 17.1 °F 10.0 °F 10.9 °F 77% 30.19 in 10.0 mi SSW 4.6 mph - N/A   Mostly Cloudy
6:04 PM 17.6 °F 10.7 °F 10.4 °F 73% 30.15 in 10.0 mi SW 4.6 mph - N/A   Partly Cloudy
6:53 PM 12.9 °F 2.6 °F 10.0 °F 88% 30.20 in 10.0 mi SW 6.9 mph - N/A   Clear
7:53 PM 12.0 °F 2.7 °F 9.0 °F 88% 30.22 in 9.0 mi SW 5.8 mph - N/A   Clear
8:53 PM 12.0 °F 0.5 °F 8.1 °F 84% 30.24 in 9.0 mi SW 8.1 mph - N/A   Clear
9:53 PM 10.0 °F 1.8 °F 6.1 °F 84% 30.25 in 8.0 mi SSW 4.6 mph - N/A   Clear
10:53 PM 9.0 °F -0.9 °F 6.1 °F 88% 30.26 in 7.0 mi SSW 5.8 mph - N/A   Clear
11:53 PM 8.1 °F -3.2 °F 3.9 °F 83% 30.27 in 6.0 mi SW 6.9 mph - N/A   Mostly Cloudy
11:57 PM 8.6 °F 0.1 °F 6.8 °F 92% 30.22 in 5.0 mi SW 4.6 mph - N/A   Mostly Cloudy